• In Czech Republic
  • List of Countries
  • For 7 days
  • Water Temperature
  • Satellite Maps
  • Weather Map
  • Weather Widgets
  • user-avatar
    Login

    Hourly Weather Almendralejo

    Today, 22 June, Friday

    Time Temperature Precipitation Wind Pressure Humidity
    00:00 +23°C° 0 mm 1 mps 732 mmHg 69%
    01:00 +23°C° 0.4 mm 1 mps 732 mmHg 71%
    02:00 +22°C° 0.4 mm 1 mps 732 mmHg 72%
    03:00 +22°C° 0.4 mm 1 mps 732 mmHg 74%
    04:00 +22°C° 0.1 mm 1 mps 732 mmHg 74%
    05:00 +22°C° 0.1 mm 1 mps 732 mmHg 73%
    06:00 +23°C° 0 mm 1 mps 732 mmHg 70%
    07:00 +24°C° 0.5 mm 1 mps 732 mmHg 65%
    08:00 +25°C° 0.5 mm 1 mps 732 mmHg 60%
    09:00 +27°C° 0.5 mm 2 mps 733 mmHg 54%
    10:00 +29°C° 0 mm 2 mps 732 mmHg 49%
    11:00 +31°C° 0 mm 1 mps 732 mmHg 43%
    12:00 +32°C° 0 mm 1 mps 732 mmHg 38%
    13:00 +33°C° 0 mm 1 mps 732 mmHg 35%
    14:00 +34°C° 0 mm 1 mps 731 mmHg 33%
    15:00 +35°C° 0 mm 1 mps 731 mmHg 30%
    16:00 +34°C° 0 mm 1 mps 731 mmHg 31%
    17:00 +34°C° 0 mm 1 mps 730 mmHg 31%
    18:00 +34°C° 0 mm 1 mps 730 mmHg 32%
    19:00 +32°C° 0.1 mm 1 mps 730 mmHg 36%
    20:00 +30°C° 0.1 mm 2 mps 730 mmHg 41%
    21:00 +29°C° 0.1 mm 2 mps 731 mmHg 45%
    22:00 +28°C° 0 mm 2 mps 731 mmHg 49%
    23:00 +27°C° 0 mm 2 mps 731 mmHg 53%

    Tomorrow, 23 June, Saturday

    Time Temperature Precipitation Wind Pressure Humidity
    00:00 +26°C° 0 mm 2 mps 731 mmHg 57%
    01:00 +25°C° 0 mm 2 mps 731 mmHg 60%
    02:00 +24°C° 0 mm 2 mps 731 mmHg 62%
    03:00 +22°C° 0 mm 3 mps 731 mmHg 64%
    04:00 +23°C° 0 mm 2 mps 731 mmHg 64%
    05:00 +23°C° 0 mm 1 mps 731 mmHg 64%
    06:00 +23°C° 0 mm 1 mps 732 mmHg 64%
    07:00 +25°C° 0 mm 1 mps 732 mmHg 56%
    08:00 +27°C° 0 mm 1 mps 732 mmHg 49%
    09:00 +30°C° 0 mm 1 mps 732 mmHg 42%
    10:00 +31°C° 0 mm 1 mps 732 mmHg 37%
    11:00 +33°C° 0 mm 1 mps 732 mmHg 33%
    12:00 +34°C° 0 mm 1 mps 732 mmHg 29%
    13:00 +35°C° 0 mm 1 mps 732 mmHg 27%
    14:00 +37°C° 0 mm 2 mps 731 mmHg 25%
    15:00 +38°C° 0 mm 2 mps 731 mmHg 23%
    16:00 +37°C° 0 mm 2 mps 731 mmHg 23%
    17:00 +37°C° 0 mm 2 mps 730 mmHg 23%
    18:00 +37°C° 0 mm 2 mps 730 mmHg 24%
    19:00 +35°C° 0 mm 3 mps 730 mmHg 27%
    20:00 +31°C° 0 mm 3 mps 731 mmHg 31%
    21:00 +29°C° 0 mm 3 mps 731 mmHg 34%
    22:00 +28°C° 0 mm 3 mps 731 mmHg 39%
    23:00 +27°C° 0 mm 2 mps 731 mmHg 43%

    Day after tomorrow, 24 June, Sunday

    Time Temperature Precipitation Wind Pressure Humidity
    00:00 +26°C° 0 mm 2 mps 731 mmHg 48%
    01:00 +25°C° 0 mm 2 mps 731 mmHg 52%
    02:00 +25°C° 0 mm 2 mps 731 mmHg 55%
    03:00 +24°C° 0 mm 1 mps 731 mmHg 59%
    04:00 +24°C° 0 mm 1 mps 731 mmHg 60%
    05:00 +24°C° 0 mm 1 mps 731 mmHg 61%
    06:00 +24°C° 0 mm 1 mps 731 mmHg 63%
    07:00 +26°C° 0 mm 1 mps 731 mmHg 55%
    08:00 +28°C° 0 mm 1 mps 731 mmHg 48%
    09:00 +31°C° 0 mm 1 mps 732 mmHg 41%
    10:00 +32°C° 0 mm 1 mps 732 mmHg 36%
    11:00 +34°C° 0 mm 1 mps 732 mmHg 31%
    12:00 +36°C° 0 mm 1 mps 731 mmHg 26%
    13:00 +37°C° 0 mm 2 mps 731 mmHg 25%
    14:00 +38°C° 0 mm 2 mps 731 mmHg 23%
    15:00 +38°C° 0 mm 3 mps 730 mmHg 22%
    16:00 +38°C° 0 mm 3 mps 730 mmHg 23%
    17:00 +37°C° 0 mm 4 mps 730 mmHg 25%
    18:00 +37°C° 0 mm 4 mps 730 mmHg 27%
    19:00 +35°C° 0 mm 4 mps 730 mmHg 32%
    20:00 +32°C° 0 mm 4 mps 730 mmHg 37%
    21:00 +29°C° 0 mm 4 mps 731 mmHg 43%
    22:00 +28°C° 0 mm 4 mps 731 mmHg 48%
    23:00 +27°C° 0 mm 3 mps 731 mmHg 53%

    25 June, Monday

    Time Temperature Precipitation Wind Pressure Humidity
    00:00 +26°C° 0 mm 2 mps 731 mmHg 59%
    01:00 +25°C° 0 mm 2 mps 731 mmHg 61%
    02:00 +24°C° 0 mm 2 mps 731 mmHg 64%
    03:00 +24°C° 0 mm 2 mps 730 mmHg 67%
    04:00 +23°C° 0 mm 2 mps 731 mmHg 68%
    05:00 +23°C° 0 mm 1 mps 731 mmHg 69%
    06:00 +23°C° 0 mm 1 mps 731 mmHg 70%
    07:00 +25°C° 0 mm 1 mps 731 mmHg 63%
    08:00 +26°C° 0 mm 2 mps 731 mmHg 56%
    09:00 +28°C° 0 mm 2 mps 732 mmHg 49%
    10:00 +30°C° 0 mm 2 mps 732 mmHg 44%
    11:00 +31°C° 0 mm 2 mps 732 mmHg 39%
    12:00 +34°C° 0 mm 3 mps 732 mmHg 34%
    13:00 +35°C° 0 mm 3 mps 731 mmHg 31%
    14:00 +35°C° 0 mm 3 mps 731 mmHg 28%
    15:00 +36°C° 0 mm 3 mps 731 mmHg 25%
    16:00 +36°C° 0 mm 3 mps 731 mmHg 25%
    17:00 +35°C° 0 mm 4 mps 731 mmHg 25%
    18:00 +35°C° 0 mm 4 mps 731 mmHg 25%
    19:00 +33°C° 0 mm 3 mps 731 mmHg 28%
    20:00 +30°C° 0 mm 3 mps 732 mmHg 31%
    21:00 +28°C° 0 mm 3 mps 732 mmHg 35%
    22:00 +26°C° 0 mm 2 mps 732 mmHg 40%
    23:00 +25°C° 0 mm 2 mps 732 mmHg 46%

    26 June, Tuesday

    Time Temperature Precipitation Wind Pressure Humidity
    00:00 +24°C° 0 mm 2 mps 732 mmHg 51%
    01:00 +23°C° 0 mm 1 mps 731 mmHg 54%
    02:00 +23°C° 0 mm 1 mps 731 mmHg 57%
    03:00 +22°C° 0 mm 1 mps 731 mmHg 60%
    04:00 +22°C° 0 mm 1 mps 731 mmHg 61%
    05:00 +22°C° 0 mm 1 mps 731 mmHg 62%
    06:00 +22°C° 0 mm 1 mps 731 mmHg 62%
    07:00 +24°C° 0 mm 1 mps 732 mmHg 55%
    08:00 +26°C° 0 mm 1 mps 732 mmHg 47%
    09:00 +29°C° 0 mm 1 mps 732 mmHg 40%
    10:00 +30°C° 0 mm 1 mps 732 mmHg 36%
    11:00 +32°C° 0 mm 2 mps 732 mmHg 32%
    12:00 +34°C° 0 mm 2 mps 732 mmHg 28%
    13:00 +35°C° 0 mm 3 mps 731 mmHg 26%
    14:00 +35°C° 0 mm 3 mps 731 mmHg 24%
    15:00 +36°C° 0 mm 4 mps 730 mmHg 23%
    16:00 +35°C° 0 mm 4 mps 730 mmHg 23%
    17:00 +35°C° 0 mm 5 mps 730 mmHg 24%
    18:00 +34°C° 0 mm 5 mps 730 mmHg 24%
    19:00 +32°C° 0 mm 5 mps 731 mmHg 29%
    20:00 +29°C° 0 mm 4 mps 731 mmHg 35%
    21:00 +27°C° 0 mm 4 mps 731 mmHg 40%
    22:00 +25°C° 0 mm 4 mps 731 mmHg 46%
    23:00 +24°C° 0 mm 3 mps 732 mmHg 52%

    27 June, Wednesday

    Time Temperature Precipitation Wind Pressure Humidity
    00:00 +22°C° 0 mm 3 mps 732 mmHg 57%
    01:00 +21°C° 0 mm 2 mps 732 mmHg 60%
    02:00 +20°C° 0 mm 2 mps 732 mmHg 62%
    03:00 +19°C° 0 mm 2 mps 732 mmHg 65%
    04:00 +19°C° 0 mm 2 mps 732 mmHg 66%
    05:00 +19°C° 0 mm 2 mps 732 mmHg 68%
    06:00 +19°C° 0 mm 2 mps 732 mmHg 69%
    07:00 +20°C° 0 mm 2 mps 732 mmHg 62%
    08:00 +23°C° 0 mm 2 mps 732 mmHg 54%
    09:00 +25°C° 0 mm 2 mps 732 mmHg 46%
    10:00 +27°C° 0 mm 2 mps 732 mmHg 42%
    11:00 +28°C° 0 mm 3 mps 732 mmHg 37%
    12:00 +30°C° 0 mm 3 mps 731 mmHg 32%
    13:00 +30°C° 0 mm 3 mps 731 mmHg 30%
    14:00 +31°C° 0 mm 3 mps 731 mmHg 28%
    15:00 +33°C° 0 mm 3 mps 730 mmHg 26%
    16:00 +32°C° 0 mm 4 mps 730 mmHg 27%
    17:00 +32°C° 0 mm 4 mps 730 mmHg 28%
    18:00 +30°C° 0 mm 4 mps 730 mmHg 29%
    19:00 +29°C° 0 mm 4 mps 730 mmHg 34%
    20:00 +27°C° 0 mm 4 mps 731 mmHg 40%
    21:00 +25°C° 0 mm 4 mps 731 mmHg 45%
    22:00 +24°C° 0 mm 3 mps 731 mmHg 51%
    23:00 +22°C° 0 mm 3 mps 731 mmHg 58%
    Show more